This demonstration page uses our WeatherBlox Daily Observations layout. Learn more.

41.86663, -103.66717

Hourly Observations for May 5, 2019

Temp ( °F °C ) Dew Point ( °F °C ) Humidity (%) Winds ( mph kmh ) Pressure ( in mb ) Visibility ( mi km ) Precip ( " mm )
12:53 am 00:53 Clear 50 10 35 1.7 57 57 VRB 6 9 29.71 1006 10 16.09344 0 0
1:53 am 01:53 Clear 50 10 36 2.2 59 59 NE 8 13 29.71 1006 10 16.09344 0 0
2:53 am 02:53 Clear 45 7.2 37 2.8 74 74 N 5 7 29.71 1006 10 16.09344 0 0
3:53 am 03:53 Clear 42 5.6 36 2.2 79 79 WNW 5 7 29.74 1007 10 16.09344 0 0
4:53 am 04:53 Clear 40 4.4 35 1.7 83 83 NNW 5 7 29.74 1007 10 16.09344 0 0
5:53 am 05:53 Sunny 37 2.8 33 0.6 86 86 W 7 11 29.74 1007 10 16.09344 0 0
6:53 am 06:53 Sunny 43 6.1 37 2.8 80 80 NNW 7 11 29.77 1008 10 16.09344 0 0
7:53 am 07:53 Sunny 51 10.6 40 4.4 66 66 NNE 10 17 29.77 1008 10 16.09344 0 0
8:53 am 08:53 Sunny 53 11.7 42 5.6 66 66 NE 12 19 29.8 1009 10 16.09344 0 0
9:53 am 09:53 Sunny 56 13.3 42 5.6 60 60 ENE 8 13 29.8 1009 10 16.09344 0 0
10:53 am 10:53 Sunny 57 13.9 44 6.7 62 62 NE 12 19 29.77 1008 10 16.09344 0 0
11:53 am 11:53 Sunny 61 16.1 44 6.7 54 54 NE 12 19 29.77 1008 10 16.09344 0 0
12:53 pm 12:53 Sunny 64 17.8 44 6.7 48 48 SE 7 11 29.74 1007 10 16.09344 0 0
1:53 pm 13:53 Sunny 66 18.9 43 6.1 43 43 ESE 6 9 29.71 1006 10 16.09344 0 0
2:53 pm 14:53 Sunny 66 18.9 43 6.1 43 43 E 8 13 29.71 1006 10 16.09344 0 0
3:53 pm 15:53 Sunny 68 20 44 6.7 42 42 SE 10 17 29.71 1006 10 16.09344 0 0
4:53 pm 16:53 Mostly Sunny 68 20 43 6.1 40 40 ESE 10 17 29.71 1006 10 16.09344 0 0
5:53 pm 17:53 Sunny 68 20 42 5.6 39 39 ENE 12 19 29.71 1006 10 16.09344 0 0
6:53 pm 18:53 Partly Cloudy 63 17.2 43 6.1 48 48 NE 17 28 29.71 1006 10 16.09344 0 0
7:53 pm 19:53 Cloudy with Light Rain 56 13.3 48 8.9 75 75 ENE 9 15 29.77 1008 10 16.09344 0.02 0.508
8:53 pm 20:53 Partly Cloudy 54 12.2 49 9.4 83 83 W 3 6 29.8 1009 10 16.09344 0.001 0.001
9:53 pm 21:53 Partly Cloudy 53 11.7 48 8.9 83 83 E 8 13 29.8 1009 10 16.09344 0.001 0.001
10:53 pm 22:53 Mostly Clear 52 11.1 47 8.3 83 83 E 9 15 29.83 1010 10 16.09344 0 0
11:53 pm 23:53 Partly Cloudy 49 9.4 42 5.6 77 77 ENE 22 35 29.85 1011 10 16.09344 0 0

Powered by AerisWeather